Starlink 11431

operational
NORAD ID: 62890 Int'l Des: 2025-024 Owner: SPXS Country: US Constellation: starlink
LEOCIRCULAR

Starlink 11431について

説明を読み込み中...

リアルタイム位置

3D地球を読み込み中...

次回通過

高度履歴

Altitude vs Time

uPlot chart will show altitude changes over time

軌道要素

1 62890U 25024M 25352.25238426 .00171321 00000-0 13069-2 0 9993
2 62890 43.0029 312.7769 0002605 274.8371 85.2199 15.70918850 50659
Epoch: Dec 18, 2025 • Age: 8 hours

現在のステータス

高度 356.6 km
速度 7.70 km/s
衛星直下点 24.53°N, 44.84°E
打ち上げ日 Feb 4, 2025
運用期間 0.8 years
タイプ internet

技術仕様

分類 Payload
質量 960.00 kg
乾燥質量 910.00 kg
総質量 960.00 kg
長さ 0.30 m
直径 4.10 m
スパン 29.00 m
形状 Box + pan
製造者 SPXS
バスタイプ Starlink V2MD
フェーズステータス In Orbit
所有者/国 SPXS/US

大規模コンステレーション

Loading constellations...